When you browse on this site, cookies collect data to enhance your experience and personalize the content and advertising you see.
Visit our Privacy Policy to learn more. By continuing to use the site, you agree to this use of cookies and data.
  • In United Kingdom
  • List of Countries
  • For 7 days
  • Water Temperature
  • Weather Map
  • Weather Widgets
  • user-avatar
    Login

    Hourly Weather Peches'ke

    Today, 5 June, Friday

    Time Temperature Precipitation Wind Pressure Humidity
    00:00 +11°C° 0.1 mm 3 mps 725 mmHg 90%
    01:00 +11°C° 0.1 mm 3 mps 725 mmHg 90%
    02:00 +11°C° 0 mm 4 mps 725 mmHg 88%
    03:00 +12°C° 0 mm 4 mps 725 mmHg 90%
    04:00 +12°C° 0 mm 4 mps 725 mmHg 92%
    05:00 +12°C° 0 mm 4 mps 725 mmHg 94%
    06:00 +13°C° 0.1 mm 4 mps 725 mmHg 93%
    07:00 +14°C° 0.1 mm 5 mps 726 mmHg 92%
    08:00 +14°C° 0 mm 5 mps 726 mmHg 92%
    09:00 +15°C° 0.1 mm 5 mps 726 mmHg 89%
    10:00 +16°C° 0.1 mm 5 mps 726 mmHg 86%
    11:00 +17°C° 0.1 mm 5 mps 727 mmHg 84%
    12:00 +20°C° 0.3 mm 5 mps 727 mmHg 79%
    13:00 +21°C° 0.3 mm 5 mps 727 mmHg 75%
    14:00 +22°C° 0.3 mm 5 mps 727 mmHg 70%
    15:00 +22°C° 0.3 mm 5 mps 727 mmHg 72%
    16:00 +22°C° 0.3 mm 5 mps 727 mmHg 73%
    17:00 +23°C° 0.3 mm 4 mps 727 mmHg 74%
    18:00 +21°C° 0.2 mm 4 mps 727 mmHg 78%
    19:00 +20°C° 0.2 mm 3 mps 727 mmHg 81%
    20:00 +19°C° 0.2 mm 3 mps 727 mmHg 84%
    21:00 +18°C° 0.2 mm 3 mps 727 mmHg 86%
    22:00 +17°C° 0.2 mm 3 mps 727 mmHg 89%
    23:00 +16°C° 0.2 mm 3 mps 728 mmHg 91%

    Tomorrow, 6 June, Saturday

    Time Temperature Precipitation Wind Pressure Humidity
    00:00 +16°C° 0 mm 3 mps 728 mmHg 90%
    01:00 +16°C° 0 mm 3 mps 728 mmHg 90%
    02:00 +14°C° 0 mm 3 mps 728 mmHg 89%
    03:00 +16°C° 0 mm 3 mps 728 mmHg 88%
    04:00 +16°C° 0 mm 3 mps 728 mmHg 87%
    05:00 +16°C° 0 mm 3 mps 729 mmHg 85%
    06:00 +16°C° 0.1 mm 3 mps 729 mmHg 86%
    07:00 +17°C° 0.1 mm 3 mps 730 mmHg 86%
    08:00 +17°C° 0.1 mm 3 mps 730 mmHg 87%
    09:00 +18°C° 0 mm 3 mps 731 mmHg 83%
    10:00 +20°C° 0 mm 3 mps 732 mmHg 80%
    11:00 +21°C° 0 mm 3 mps 732 mmHg 77%
    12:00 +21°C° 0.2 mm 3 mps 732 mmHg 76%
    13:00 +22°C° 0.2 mm 3 mps 732 mmHg 75%
    14:00 +23°C° 0.2 mm 2 mps 732 mmHg 74%
    15:00 +23°C° 0 mm 2 mps 732 mmHg 72%
    16:00 +24°C° 0 mm 1 mps 732 mmHg 70%
    17:00 +24°C° 0 mm 1 mps 733 mmHg 68%
    18:00 +23°C° 0 mm 1 mps 733 mmHg 73%
    19:00 +21°C° 0 mm 1 mps 732 mmHg 78%
    20:00 +19°C° 0 mm 2 mps 732 mmHg 84%
    21:00 +19°C° 0.1 mm 2 mps 733 mmHg 86%
    22:00 +18°C° 0.1 mm 3 mps 733 mmHg 88%
    23:00 +17°C° 0.1 mm 3 mps 733 mmHg 90%

    Day after tomorrow, 7 June, Sunday

    Time Temperature Precipitation Wind Pressure Humidity
    00:00 +17°C° 0.4 mm 4 mps 733 mmHg 91%
    01:00 +17°C° 0.4 mm 4 mps 733 mmHg 92%
    02:00 +18°C° 0.4 mm 4 mps 733 mmHg 93%
    03:00 +17°C° 0 mm 4 mps 733 mmHg 92%
    04:00 +17°C° 0 mm 4 mps 732 mmHg 92%
    05:00 +17°C° 0 mm 4 mps 732 mmHg 91%
    06:00 +18°C° 0 mm 4 mps 732 mmHg 87%
    07:00 +19°C° 0 mm 5 mps 733 mmHg 82%
    08:00 +20°C° 0 mm 6 mps 733 mmHg 78%
    09:00 +21°C° 0 mm 6 mps 733 mmHg 73%
    10:00 +23°C° 0 mm 6 mps 733 mmHg 69%
    11:00 +24°C° 0 mm 6 mps 733 mmHg 65%
    12:00 +24°C° 0 mm 6 mps 733 mmHg 64%
    13:00 +26°C° 0 mm 6 mps 733 mmHg 64%
    14:00 +27°C° 0 mm 6 mps 733 mmHg 63%
    15:00 +26°C° 0 mm 6 mps 733 mmHg 66%
    16:00 +26°C° 0 mm 5 mps 733 mmHg 69%
    17:00 +26°C° 0 mm 5 mps 733 mmHg 72%
    18:00 +25°C° 0 mm 4 mps 733 mmHg 77%
    19:00 +22°C° 0 mm 4 mps 732 mmHg 81%
    20:00 +21°C° 0 mm 4 mps 732 mmHg 86%
    21:00 +20°C° 0 mm 4 mps 732 mmHg 87%
    22:00 +19°C° 0 mm 4 mps 733 mmHg 87%
    23:00 +18°C° 0 mm 4 mps 733 mmHg 88%

    8 June, Monday

    Time Temperature Precipitation Wind Pressure Humidity
    00:00 +18°C° 0 mm 4 mps 733 mmHg 88%
    01:00 +17°C° 0 mm 4 mps 733 mmHg 88%
    02:00 +17°C° 0 mm 3 mps 733 mmHg 87%
    03:00 +16°C° 0 mm 3 mps 733 mmHg 88%
    04:00 +16°C° 0 mm 3 mps 732 mmHg 89%
    05:00 +16°C° 0 mm 3 mps 732 mmHg 89%
    06:00 +18°C° 0 mm 3 mps 732 mmHg 87%
    07:00 +19°C° 0 mm 4 mps 732 mmHg 84%
    08:00 +21°C° 0 mm 4 mps 733 mmHg 82%
    09:00 +22°C° 0 mm 4 mps 733 mmHg 77%
    10:00 +23°C° 0 mm 5 mps 733 mmHg 72%
    11:00 +26°C° 0 mm 6 mps 733 mmHg 68%
    12:00 +26°C° 0 mm 6 mps 733 mmHg 67%
    13:00 +26°C° 0 mm 6 mps 732 mmHg 67%
    14:00 +26°C° 0 mm 6 mps 732 mmHg 67%
    15:00 +26°C° 0.1 mm 6 mps 732 mmHg 70%
    16:00 +26°C° 0.1 mm 5 mps 732 mmHg 72%
    17:00 +26°C° 0.1 mm 5 mps 731 mmHg 75%
    18:00 +23°C° 0 mm 4 mps 731 mmHg 79%
    19:00 +22°C° 0 mm 4 mps 731 mmHg 84%
    20:00 +21°C° 0 mm 3 mps 731 mmHg 89%
    21:00 +20°C° 0 mm 3 mps 731 mmHg 90%
    22:00 +19°C° 0 mm 3 mps 731 mmHg 92%
    23:00 +18°C° 0 mm 3 mps 732 mmHg 93%

    9 June, Tuesday

    Time Temperature Precipitation Wind Pressure Humidity
    00:00 +18°C° 0 mm 3 mps 731 mmHg 93%
    01:00 +18°C° 0 mm 3 mps 731 mmHg 94%
    02:00 +17°C° 0 mm 3 mps 731 mmHg 94%
    03:00 +17°C° 0 mm 3 mps 731 mmHg 94%
    04:00 +17°C° 0 mm 3 mps 731 mmHg 94%
    05:00 +17°C° 0 mm 3 mps 731 mmHg 93%
    06:00 +19°C° 0 mm 3 mps 732 mmHg 88%
    07:00 +20°C° 0 mm 3 mps 732 mmHg 83%
    08:00 +22°C° 0 mm 4 mps 732 mmHg 77%
    09:00 +23°C° 0.1 mm 4 mps 732 mmHg 74%
    10:00 +25°C° 0.1 mm 4 mps 733 mmHg 71%
    11:00 +26°C° 0.1 mm 5 mps 733 mmHg 67%
    12:00 +26°C° 0.1 mm 5 mps 732 mmHg 67%
    13:00 +27°C° 0.1 mm 5 mps 732 mmHg 67%
    14:00 +27°C° 0.1 mm 5 mps 732 mmHg 67%
    15:00 +27°C° 0.5 mm 5 mps 732 mmHg 70%
    16:00 +26°C° 0.5 mm 4 mps 732 mmHg 73%
    17:00 +26°C° 0.5 mm 4 mps 732 mmHg 76%
    18:00 +23°C° 1.6 mm 4 mps 731 mmHg 80%
    19:00 +22°C° 1.6 mm 4 mps 731 mmHg 84%
    20:00 +20°C° 1.6 mm 4 mps 731 mmHg 89%
    21:00 +19°C° 0.2 mm 4 mps 732 mmHg 90%
    22:00 +19°C° 0.2 mm 3 mps 732 mmHg 91%
    23:00 +18°C° 0.2 mm 3 mps 732 mmHg 92%

    10 June, Wednesday

    Time Temperature Precipitation Wind Pressure Humidity
    00:00 +18°C° 0.1 mm 3 mps 732 mmHg 93%
    01:00 +18°C° 0.1 mm 3 mps 732 mmHg 93%
    02:00 +18°C° 0.1 mm 2 mps 731 mmHg 94%
    03:00 +18°C° 0 mm 2 mps 732 mmHg 94%
    04:00 +18°C° 0 mm 2 mps 732 mmHg 94%
    05:00 +18°C° 0 mm 2 mps 732 mmHg 94%
    06:00 +19°C° 0 mm 2 mps 732 mmHg 90%
    07:00 +21°C° 0 mm 2 mps 732 mmHg 86%
    08:00 +24°C° 0 mm 2 mps 733 mmHg 81%
    09:00 +25°C° 0.4 mm 2 mps 733 mmHg 76%
    10:00 +26°C° 0.4 mm 3 mps 733 mmHg 70%
    11:00 +27°C° 0.4 mm 3 mps 733 mmHg 64%
    12:00 +27°C° 0.4 mm 3 mps 733 mmHg 64%
    13:00 +28°C° 0.4 mm 4 mps 733 mmHg 65%
    14:00 +28°C° 0.4 mm 4 mps 733 mmHg 65%
    15:00 +27°C° 1 mm 4 mps 732 mmHg 68%
    16:00 +27°C° 1 mm 3 mps 732 mmHg 72%
    17:00 +26°C° 1 mm 3 mps 732 mmHg 75%
    18:00 +25°C° 0.5 mm 3 mps 732 mmHg 78%
    19:00 +23°C° 0.5 mm 2 mps 732 mmHg 80%
    20:00 +21°C° 0.5 mm 2 mps 732 mmHg 83%
    21:00 +21°C° 0 mm 1 mps 732 mmHg 83%
    22:00 +21°C° 0 mm 1 mps 732 mmHg 84%
    23:00 +20°C° 0 mm 1 mps 732 mmHg 85%
    Show more